Location: NJAA Observatory
(40.6819°N, 74.8979°W)
Time: 01:25:38
(UTC-04:00)

Cosmos 2237 Rocket - Visible Passes

Search period start: 29 March 2017 00:00
Search period end: 08 April 2017 00:00
Orbit: 833 x 851 km, 71.0° (Epoch: 27 March)

Date Brightness Start Highest point End Pass type
(mag) Time Alt. Az. Time Alt. Az. Time Alt. Az.
29 Mar 4.5 03:50:27 11° SE 03:53:36 17° E 03:57:13 10° ENE visible
29 Mar 2.2 05:32:19 15° SW 05:37:03 64° WNW 05:42:44 10° NNE visible
30 Mar 4.5 03:36:36 13° SE 03:38:48 17° E 03:42:14 10° ENE visible
30 Mar 2.2 05:18:28 22° SW 05:22:12 67° WNW 05:27:55 10° NNE visible
31 Mar 4.5 03:22:38 14° ESE 03:23:59 16° E 03:27:14 10° ENE visible
31 Mar 2.2 05:04:30 30° SW 05:07:22 70° WNW 05:13:05 10° NNE visible
01 Apr 4.5 03:08:35 15° ESE 03:09:12 15° E 03:12:14 10° ENE visible
01 Apr 2.1 04:50:25 40° SW 04:52:31 74° WNW 04:58:15 10° NNE visible
02 Apr 4.6 02:54:27 14° E 02:54:27 14° E 02:57:12 10° ENE visible
02 Apr 2.1 04:36:18 53° SW 04:37:41 77° WNW 04:43:25 10° NNE visible
03 Apr 4.7 02:40:15 13° E 02:40:15 13° E 02:42:08 10° ENE visible
03 Apr 2.1 04:22:06 67° SW 04:22:51 81° WNW 04:28:35 10° NNE visible
03 Apr 4.1 06:05:00 10° WNW 06:07:51 14° NW 06:10:43 10° NNW visible
04 Apr 4.8 02:25:59 12° E 02:25:59 12° E 02:27:02 10° ENE visible
04 Apr 2.0 04:07:50 83° WSW 04:08:00 85° WNW 04:13:46 10° NNE visible
04 Apr 4.1 05:49:56 10° W 05:52:58 14° NW 05:56:01 10° NNW visible
05 Apr 4.9 02:11:41 10° ENE 02:11:41 10° ENE 02:11:52 10° ENE visible
05 Apr 2.2 03:53:31 80° NNE 03:53:31 80° NNE 03:58:55 10° NNE visible
05 Apr 4.0 05:35:21 11° WNW 05:38:05 15° NW 05:41:18 10° NNW visible
06 Apr 2.4 03:39:09 67° NNE 03:39:09 67° NNE 03:44:05 10° NNE visible
06 Apr 4.0 05:20:59 13° WNW 05:23:12 16° NW 05:26:35 10° NNW visible
07 Apr 2.7 03:24:45 57° NNE 03:24:45 57° NNE 03:29:15 10° NNE visible
07 Apr 3.9 05:06:34 15° WNW 05:08:19 16° NW 05:11:51 10° N visible
